Location: Ferintosh
(52.7647°N, 112.9692°W)
Time: 14:23:58
(UTC+00:00)

Transit 2A - Pass Details

Date: 26 May 2024
Orbit: 592 x 959 km, 66.7° (Epoch: 23 June)

Event Time Altitude Azimuth Distance (km) Brightness Sun altitude
Rises 04:08:39 0° 163° (SSE) 2,941 - -4.2°
Exits shadow 04:09:22 - 160° (SSE) 2,711 8.3 -4.3°
Reaches altitude 10° 04:11:39 10° 142° (SE) 2,096 7.6 -4.6°
Maximum altitude 04:14:28 16° 105° (ESE) 1,802 7.4 -4.9°
Drops below altitude 10° 04:17:25 10° 69° (ENE) 2,236 8.2 -5.2°
Sets 04:20:46 0° 49° (NE) 3,249 9.2 -5.5°
